Flag Weather past 2 weeks in Cambridge, Massachusetts, U.S.A.

Now
54 °F

Scattered clouds.


Feels Like: 50 °F
Forecast: 44 / 57 °F
Wind: 13 mph from Northwest

Location: Logan International Airport

Current Time: Oct 30, 2014 at 10:42:58 AM

Latest Report: Oct 30, 2014 at 9:54 AM


Visibility: 10 mi

Pressure: 29.93 "Hg

Humidity: 59%

Dew point: 40 °F

Location of CambridgeLocation

Historic Weather in Cambridge — Graph

°F

Cambridge temperature yesterday

Maximum temperature yesterday: 74 °F (at 2:54 PM)
Minimum temperature yesterday: 53 °F (at 12:54 AM)
Average temperature yesterday: 60 °F

Past Weeks' High & Low Weather Summary

 TemperatureHumidityPressure
High81 °F (Oct 15, 1:54 PM)100% (Oct 16, 8:01 AM)30.12 "Hg (Oct 16, 8:01 AM)
Low39 °F (Oct 20, 7:54 AM)36% (Oct 20, 2:54 PM)29.44 "Hg (Oct 26, 5:54 AM)
Average56 °F76%29.80 "Hg
* Reported Oct 15 9:54 AM — Oct 30 9:54 AM, Cambridge, Weather by CustomWeather, © 2014

Note: Actual official high and low records may vary slightly from our data, if they occured in-between our weather recording intervals... More about our weather records

Advertising

Cambridge weather history for previous 24 hours

 ConditionsComfort  
Time TempWeatherWind HumidityBarometerVisibility
9:54 AM
Oct 30
54 °FScattered clouds.13 mph59%29.93 "Hg10 mi
8:54 AM50 °FPassing clouds.13 mph68%29.93 "Hg10 mi
7:54 AM50 °FPassing clouds.9 mph66%29.92 "Hg10 mi
6:54 AM48 °FPassing clouds.8 mph71%29.92 "Hg10 mi
5:54 AM47 °FClear.9 mph71%29.91 "Hg10 mi
4:54 AM48 °FPassing clouds.8 mph71%29.89 "Hg10 mi
3:54 AM49 °FClear.9 mph71%29.88 "Hg10 mi
2:54 AM49 °FClear.8 mph77%29.89 "Hg10 mi
1:54 AM51 °FClear.7 mph74%29.88 "Hg10 mi
12:54 AM52 °FClear.12 mph75%29.88 "Hg10 mi
11:54 PM
Oct 29
54 °FMostly cloudy.14 mph80%29.87 "Hg10 mi
10:54 PM54 °FOvercast.9 mph83%29.86 "Hg10 mi
9:54 PM54 °FLight rain. Mostly cloudy.6 mph80%29.86 "Hg10 mi
8:54 PM54 °FLight rain. Overcast.8 mph83%29.86 "Hg8 mi
7:54 PM60 °FOvercast.12 mph49%29.85 "Hg10 mi
6:54 PM62 °FOvercast.10 mph54%29.83 "Hg10 mi
5:54 PM63 °FCloudy.15 mph60%29.80 "Hg10 mi
4:54 PM67 °FCloudy.15 mph66%29.78 "Hg10 mi
3:54 PM73 °FCloudy.10 mph55%29.75 "Hg10 mi
2:54 PM74 °FMostly cloudy.12 mph60%29.75 "Hg10 mi
1:54 PM73 °FMostly cloudy.7 mph64%29.77 "Hg10 mi
12:54 PM71 °FMostly cloudy.7 mph68%29.79 "Hg10 mi
11:54 AM69 °FMore clouds than sun.10 mph73%29.82 "Hg10 mi
10:54 AM66 °FMostly cloudy.6 mph81%29.83 "Hg10 mi
Weather by CustomWeather, © 2014

See weather overviewHow to use our weather pages